SCP
-0 -0 -0 -0 -0 -0 -0 -0 -0 -0 -0 -0 -0 -0 -0 -0 -0 0 -0 0 0 -0 0 -0 0 0 0 0 -0 0 0 0 0 -0 -0 -0 -0 0 -0 0 -0 -0 -0 -0 -0
-0 -0 -0 -0 -0 -0 -0 -0 -0 -0 -0 -0 -0 -0 -0 -0 -0 -0 0 -0 -0 -0 -0 -0 0 0 0 0 0 0 0 -0 -0 0 -0 -0 -0 -0 -0 -0 -0 -0 -0 -0 -0
-0 -0 -0 -0 -0 -0 -0 -0 -0 -0 -0 -0 -0 -0 -0 -0 -0 0 0 0 -0 -0 -0 -0 -0 -0 0 0 -0 0 0 -0 -0 -0 -0 -0 0 -0 -0 -0 -0 -0 -0 -0 -0
-0 -0 -0 -0 -0 -0 -0 -0 -0 -0 -0 -0 -0 -0 -0 -0 -0 -0 0 0 0 0 -0 -0 0 0 0 -0 -0 0 -0 0 -0 -0 -0 -0 -0 -0 -0 -0 -0 -0 -0 -0 -0
-0 -0 -0 -0 -0 -0 -0 -0 -0 -0 -0 -0 -0 -0 -0 -0 0 -0 0 0 0 -0 -0 -0 -0 -0 0 -0 0 0 0 -0 -0 -0 -0 -0 -0 -0 -0 -0 -0 -0 -0 -0 -0
-0 -0 -0 -0 -0 -0 -0 -0 -0 -0 -0 -0 -0 -0 -0 -0 -0 -0 0 -0 -0 -0 -0 -0 -0 -0 -0 0 0 -0 0 -0 -0 -0 0 -0 -0 -0 -0 -0 -0 -0 -0 -0 -0
-0 -0 -0 -0 -0 -0 -0 -0 -0 -0 -0 -0 0 0 -0 0 -0 -0 -0 -0 -0 -0 0 -0 0 -0 -0 -0 0 -0 -0 0 -0 -0 0 -0 -0 -0 -0 -0 -0 -0 -0 -0 -0
-0 -0 -0 -0 -0 -0 -0 -0 -0 -0 -0 -0 -0 -0 0 0 0 -0 0 -0 -0 -0 -0 -0 -0 -0 -0 0 -0 -0 -0 0 -0 -0 0 -0 -0 -0 -0 -0 -0 -0 -0 -0 -0
-0 -0 -0 -0 -0 -0 -0 -0 -0 -0 -0 -0 -0 -0 0 0 0 0 0 0 -0 -0 -0 -0 -0 -0 -0 0 0 0 0 0 -0 -0 -0 -0 -0 -0 -0 -0 -0 -0 -0 -0 -0
-0 -0 -0 -0 -0 -0 -0 -0 -0 0 -0 -0 -0 -0 -0 -0 -0 -0 0 0 0 -0 -0 -0 -0 -0 0 -0 0 -0 -0 -0 -0 -0 0 0 -0 -0 -0 -0 -0 -0 -0 -0 -0
-0 -0 -0 -0 -0 -0 -0 0 -0 0 0 -0 -0 -0 -0 -0 -0 0 0 -0 -0 -0 -0 -0 -0 -0 0 0 0 -0 0 -0 0 -0 0 0 0 -0 -0 -0 -0 -0 -0 -0 -0
-0 -0 -0 -0 -0 -0 -0 -0 -0 -0 -0 -0 -0 0 0 -0 -0 -0 -0 0 -0 -0 -0 -0 -0 -0 -0 0 -0 -0 -0 0 -0 0 -0 -0 -0 -0 -0 -0 -0 -0 -0 -0 -0
-0 -0 -0 -0 -0 -0 -0 -0 -0 -0 -0 -0 -0 -0 -0 -0 -0 -0 -0 -0 -0 -0 -0 -0 -0 -0 0 0 -0 0 -0 -0 -0 -0 0 -0 -0 -0 0 -0 -0 -0 -0 -0 -0
-0 -0 -0 -0 -0 -0 -0 0 -0 0 0 -0 -0 -0 -0 -0 -0 -0 -0 -0 0 -0 -0 -0 -0 0 0 0 0 -0 -0 0 0 0 0 0 0 -0 0 0 -0 -0 -0 -0 -0
-0 -0 -0 -0 -0 -0 0 -0 -0 -0 -0 -0 -0 -0 -0 -0 0 -0 -0 0 0 -0 0 -0 -0 0 -0 -0 -0 -0 0 0 0 0 0 -0 0 -0 -0 -0 -0 -0 -0 -0 -0
-0 -0 -0 0 0 -0 0 -0 -0 0 0 0 -0 0 -0 -0 0 -0 -0 0 0 0 0 0 -0 0 0 -0 -0 0 0 0 -0 -0 -0 0 0 0 0 0 0 0 0 -0 -0
-0 -0 0 0 0 0 -0 -0 0 -0 0 0 -0 0 -0 -0 -0 -0 -0 -0 -0 -0 0 -0 0 -0 -0 -0 -0 -0 -0 -0 0 -0 -0 -0 0 0 0 0 -0 0 0 0 -0
-0 -0 0 0 0 -0 0 0 0 -0 0 0 0 0 0 0 -0 0 0 -0 -0 0 -0 0 -0 -0 -0 -0 -0 0 0 -0 0 0 -0 0 0 0 0 0 0 0 0 0 0
-0 0 0 0 0 0 0 0 0 -0 0 0 0 0 0 0 0 0 0 0 0 -0 0 -0 -0 0 -0 0 -0 -0 0 0 -0 -0 0 0 0 0 0 0 0 0 0 0 0
0 0 -0 0 0 0 0 0 -0 0 0 0 0 0 0 0 0 0 0 0 0 0 0 -0 0 0 0 0 0 -0 -0 0 0 -0 0 0 0 0 0 0 0 0 0 0 0
0 0 0 0 0 0 0 0 0 0 0 0 0 0 0 0 0 0 0 0 0 0 0 0 0 0 0 0 0 0 -0 -0 0 0 0 0 0 0 0 0 0 0 0 0 0
0 0 0 0 0 0 0 0 0 0 0 0 0 0 0 0 0 0 0 0 0 0 0 0 0 0 -0 0 0 -0 0 0 0 0 0 0 0 0 0 0 0 0 0 0 0
0 0 0 0 0 0 -0 -0 -0 0 0 0 0 0 0 0 0 0 0 0 0 0 0 0 0 0 0 0 0 0 -0 -0 0 0 -0 0 0 0 0 0 1 2 2 1 1
0 0 -0 0 0 0 0 0 0 0 0 0 0 0 0 0 0 0 0 0 0 0 0 0 0 0 0 0 0 0 0 0 0 0 0 -0 0 0 0 0 1 2 2 2 2
-0 0 0 0 0 0 0 0 0 0 0 0 0 0 0 0 0 0 0 0 0 0 0 0 0 0 0 0 0 0 0 0 0 0 -0 -0 -0 1 1 0 0 1 1 2 2
0 0 0 0 0 0 0 0 0 0 0 0 0 0 0 0 0 0 0 0 0 0 0 0 0 0 0 0 0 0 0 0 0 0 0 0 -0 0 0 0 1 1 1 1 2
0 0 0 0 0 0 0 0 0 0 0 0 0 0 0 0 0 0 0 0 0 0 0 0 0 0 0 0 0 0 0 0 0 0 0 0 0 0 0 1 2 2 1 0 2
Wind_Speed_500mb
25 22 19 15 13 13 13 13 11 9 6 5 6 4 5 3 6 8 4 15 14 8 7 6 14 21 19 24 33 42 10 18 16 32 38 41 32 28 28 21 16 31 47 47 42
25 24 22 19 15 13 14 12 12 9 5 4 5 5 5 5 10 17 25 21 18 15 13 12 12 12 14 15 27 18 9 27 34 0 36 37 38 39 32 33 44 48 44 43 40
26 26 25 22 18 14 14 12 11 8 5 4 6 7 8 7 5 14 25 17 14 16 11 21 12 24 35 19 35 17 15 36 27 29 34 31 30 46 43 31 34 41 41 40 36
26 27 26 25 20 16 14 12 10 6 4 4 6 10 12 8 3 7 21 18 19 26 15 17 12 25 13 25 37 12 44 11 31 24 40 33 44 31 38 39 38 38 39 35 33
29 30 29 27 21 17 14 11 8 3 4 4 7 11 11 13 10 12 20 22 20 16 13 19 27 11 12 27 13 18 18 22 23 37 24 43 36 34 41 41 40 39 36 34 32
31 34 32 28 21 17 13 7 3 2 4 5 11 14 12 19 6 9 20 20 16 16 17 16 26 23 15 21 12 19 5 34 12 27 20 38 32 37 37 43 41 37 32 35 29
33 36 34 28 21 15 8 4 0 2 4 8 12 14 12 9 8 16 22 17 13 17 16 15 19 29 38 24 8 38 19 16 13 23 19 43 22 24 39 41 40 36 28 31 29
35 36 34 28 18 8 6 6 3 2 4 8 14 15 10 9 14 19 22 19 18 20 19 18 18 30 35 16 29 12 14 14 32 43 23 35 22 28 34 38 36 35 32 28 29
34 37 35 25 11 7 7 8 6 5 7 14 14 10 15 12 20 24 26 24 19 21 23 23 19 31 35 11 13 12 5 15 32 34 42 23 19 34 38 34 33 31 32 31 30
36 35 35 25 9 6 9 9 9 12 12 20 8 14 21 19 23 25 27 24 22 19 23 26 26 26 23 18 17 6 2 24 21 27 33 16 29 31 44 40 35 33 29 32 34
42 38 33 22 6 2 3 8 4 6 26 19 13 17 8 17 23 23 26 25 24 25 24 27 21 23 24 29 28 30 33 36 18 34 12 30 16 31 32 40 40 39 34 32 34
42 39 33 20 3 2 2 8 12 13 15 39 15 16 12 19 21 24 28 27 31 27 30 28 23 32 21 12 27 30 39 7 30 29 32 32 41 46 30 36 39 46 42 39 36
43 39 32 17 2 5 8 18 11 13 16 32 32 28 22 24 25 32 35 40 29 30 32 32 27 26 4 9 17 19 25 28 3 9 17 38 41 30 29 30 40 38 47 42 40
42 38 31 14 5 7 13 9 12 10 11 27 28 28 32 25 30 32 39 36 17 30 33 31 36 7 8 20 20 27 21 14 10 18 10 9 9 33 24 45 33 41 50 42 44
44 38 30 18 11 7 6 11 9 6 11 24 30 21 30 29 13 25 36 40 31 27 28 31 25 28 20 24 23 27 26 18 17 23 28 24 17 35 46 44 41 39 59 50 48
42 38 28 13 12 10 14 12 7 11 12 21 25 22 31 40 17 28 34 41 28 31 29 35 28 26 31 21 27 24 23 21 24 24 23 28 14 9 14 7 17 23 29 57 56
40 37 27 13 4 11 10 12 11 14 16 23 28 25 33 32 31 24 29 35 28 25 31 34 38 20 20 24 28 28 22 18 17 20 22 31 23 16 31 38 42 40 31 33 61
40 31 26 17 17 14 9 13 18 26 30 17 21 27 33 34 33 28 27 31 38 38 26 23 28 40 34 36 29 28 32 23 22 24 21 22 6 13 31 31 33 29 21 9 17
42 21 18 11 6 13 20 21 15 26 18 5 20 24 33 35 28 34 35 35 37 38 35 26 33 21 40 30 33 32 26 37 38 40 25 15 20 12 27 22 35 32 35 18 12
46 29 24 24 8 12 19 33 36 36 26 23 24 18 29 34 36 32 33 28 40 38 40 39 28 34 27 31 36 35 26 24 20 30 31 30 26 29 34 38 26 33 30 20 11
31 18 15 10 9 22 21 31 36 40 32 16 31 37 33 32 32 37 36 35 23 33 34 34 31 27 23 24 31 24 32 33 30 23 24 23 20 20 39 34 30 28 29 23 17
14 13 14 11 19 24 25 40 49 48 38 17 27 36 40 39 34 39 41 38 18 28 35 34 20 31 33 23 26 35 34 36 24 28 27 23 8 21 33 40 38 40 24 20 21
19 36 32 13 16 23 37 43 47 37 25 28 37 31 36 36 40 38 39 36 46 30 25 28 19 30 33 31 33 32 39 37 36 33 35 23 21 23 24 26 40 43 35 24 21
17 9 17 30 27 29 33 34 38 40 31 28 40 37 33 34 34 40 41 39 38 38 19 15 32 28 30 35 30 39 32 35 34 26 31 34 18 24 25 26 35 41 35 30 26
11 12 27 17 27 34 36 29 30 33 39 31 29 30 36 34 34 36 36 39 39 27 21 23 37 37 41 45 44 34 35 44 39 41 39 31 37 36 32 31 34 36 27 27 27
15 32 33 44 44 37 30 33 37 40 38 35 40 31 31 36 34 35 41 36 34 28 29 30 33 36 46 45 44 45 41 32 37 39 42 41 40 27 32 42 42 39 30 28 31
21 27 33 28 33 28 27 35 37 35 38 41 38 34 32 35 29 32 43 49 31 32 36 35 29 32 42 42 43 49 46 42 40 31 35 35 33 29 18 32 47 44 36 34 32
Wind_Direction_500mb
10 9 4 358 348 335 328 329 326 325 298 280 270 245 247 217 182 183 257 237 232 229 159 171 275 263 274 288 346 321 198 87 92 103 96 97 93 112 123 132 94 96 139 135 140
7 5 4 355 348 335 328 326 324 325 296 266 252 223 220 206 210 234 246 260 245 195 159 196 234 251 250 49 38 4 290 104 100 249 104 121 135 135 111 110 106 104 119 137 143
3 0 359 353 344 332 325 322 321 312 275 241 214 204 199 204 252 208 227 235 204 171 204 285 312 351 328 170 184 206 252 107 127 152 111 115 102 134 120 120 126 131 138 144 148
358 356 354 350 342 333 327 321 315 297 260 249 209 197 200 201 331 222 218 203 179 166 276 277 234 188 237 266 208 281 98 270 120 102 108 97 83 67 92 118 132 139 142 147 154
358 356 351 346 342 334 329 320 302 264 248 199 190 197 192 237 252 281 182 181 175 203 253 265 284 127 276 287 234 35 319 12 112 110 103 87 94 108 112 124 134 142 146 155 154
0 355 350 347 345 336 327 322 298 245 214 197 185 192 195 257 264 180 172 175 173 216 245 268 314 321 344 6 333 219 279 231 160 90 157 113 123 115 120 133 138 149 161 159 148
1 354 352 350 346 342 351 359 305 229 190 186 184 189 245 284 192 176 180 192 208 221 262 268 293 308 301 171 150 312 344 316 166 152 98 60 25 112 137 138 147 158 165 140 157
2 358 355 353 353 12 28 26 47 146 171 177 178 185 271 183 183 190 199 210 223 232 261 292 287 290 284 277 175 29 43 357 302 329 99 93 274 147 152 146 157 160 163 154 150
2 357 357 357 10 31 52 56 77 119 149 160 164 208 243 201 193 201 198 210 230 245 255 274 279 278 278 231 54 59 112 113 328 308 252 121 227 258 171 157 161 163 162 166 164
5 0 357 357 14 57 91 77 87 112 147 155 200 243 212 215 191 194 201 210 222 237 252 254 267 253 230 203 155 198 208 164 188 295 337 138 173 200 182 162 160 165 167 174 171
1 0 356 354 355 14 234 329 257 199 206 224 239 248 149 173 173 193 196 205 217 224 230 221 239 244 251 113 156 163 203 197 109 295 348 348 225 174 186 163 163 164 170 180 176
358 357 354 352 323 355 217 253 4 319 273 235 238 234 170 178 184 199 191 200 204 220 222 241 232 264 279 104 166 197 220 270 182 203 133 79 286 263 174 181 180 170 171 179 180
353 354 352 352 289 226 292 305 314 317 267 202 211 220 204 192 211 193 193 205 201 224 224 241 239 229 349 213 271 269 294 173 236 228 216 170 216 203 172 190 187 179 169 182 182
348 349 348 338 352 313 266 280 322 314 275 177 197 220 191 208 231 200 199 202 220 229 232 232 259 215 218 259 241 269 210 281 296 271 302 282 186 210 148 226 185 179 172 187 178
343 343 345 326 278 280 301 315 294 260 278 137 169 179 180 197 182 191 195 218 240 217 233 241 229 256 229 250 249 275 309 340 296 270 280 221 257 176 175 208 175 186 177 181 176
338 335 337 340 297 243 307 299 295 236 251 166 150 192 191 215 185 168 190 223 239 260 238 258 258 235 258 223 253 271 286 267 268 268 270 265 249 111 136 81 54 83 164 178 183
330 323 315 278 140 295 277 271 232 245 132 160 175 196 210 199 223 190 198 206 223 220 246 234 246 236 258 265 238 233 245 249 241 232 242 238 224 144 146 134 118 225 173 188 192
325 315 310 270 249 274 247 235 249 266 196 102 195 193 210 209 211 199 212 219 219 239 258 215 232 219 207 227 242 219 226 242 240 244 246 354 336 113 143 117 115 128 127 155 214
331 327 289 311 238 225 231 224 241 227 318 190 202 215 206 219 225 202 211 228 228 218 248 263 246 236 204 203 233 241 217 249 267 284 286 240 108 55 119 153 146 131 131 129 111
333 319 253 198 230 211 235 241 270 300 323 305 271 220 243 216 220 229 211 223 238 228 213 255 278 282 176 198 215 244 246 224 233 259 276 282 219 221 182 174 166 148 151 154 148
328 289 161 193 209 229 241 251 258 261 266 268 271 276 266 256 226 227 234 240 222 237 227 224 251 270 172 196 228 210 239 256 271 232 241 255 269 132 164 161 156 152 141 157 167
306 275 163 218 239 238 247 252 263 279 289 264 268 283 287 289 270 262 230 240 269 203 238 216 236 240 255 214 206 256 233 230 241 241 273 274 270 60 160 137 158 135 143 157 160
312 286 276 220 260 257 254 257 256 268 284 278 270 253 274 273 283 282 274 264 243 204 230 233 220 249 247 233 205 218 239 244 229 242 261 255 252 125 112 129 124 137 148 149 149
307 300 218 212 250 269 283 289 294 290 241 266 281 287 275 267 269 270 273 276 274 253 154 279 244 230 241 234 236 199 222 245 252 245 228 242 197 140 151 159 143 150 156 158 159
263 299 340 301 305 327 317 309 296 290 288 277 250 265 277 276 273 271 266 267 268 239 179 226 253 254 256 264 271 273 219 209 227 249 257 250 240 165 181 177 161 143 158 157 153
300 334 321 301 300 298 285 275 276 281 287 280 281 275 251 275 265 290 281 269 260 251 208 213 245 252 259 261 258 264 262 259 225 219 243 251 264 279 175 156 151 152 160 168 159
316 309 298 279 287 286 278 283 282 283 278 274 278 290 306 336 329 312 306 305 296 293 298 216 229 240 250 250 262 258 252 256 253 238 225 235 239 259 251 156 153 154 169 175 168
Wind_Speed_850mb
25 22 19 15 13 13 13 13 11 9 6 5 6 4 5 3 6 8 4 15 14 8 7 6 14 21 19 24 33 42 10 18 16 32 38 41 32 28 28 21 16 31 47 47 42
25 24 22 19 15 13 14 12 12 9 5 4 5 5 5 5 10 17 25 21 18 15 13 12 12 12 14 15 27 18 9 27 34 0 36 37 38 39 32 33 44 48 44 43 40
26 26 25 22 18 14 14 12 11 8 5 4 6 7 8 7 5 14 25 17 14 16 11 21 12 24 35 19 35 17 15 36 27 29 34 31 30 46 43 31 34 41 41 40 36
26 27 26 25 20 16 14 12 10 6 4 4 6 10 12 8 3 7 21 18 19 26 15 17 12 25 13 25 37 12 44 11 31 24 40 33 44 31 38 39 38 38 39 35 33
29 30 29 27 21 17 14 11 8 3 4 4 7 11 11 13 10 12 20 22 20 16 13 19 27 11 12 27 13 18 18 22 23 37 24 43 36 34 41 41 40 39 36 34 32
31 34 32 28 21 17 13 7 3 2 4 5 11 14 12 19 6 9 20 20 16 16 17 16 26 23 15 21 12 19 5 34 12 27 20 38 32 37 37 43 41 37 32 35 29
33 36 34 28 21 15 8 4 0 2 4 8 12 14 12 9 8 16 22 17 13 17 16 15 19 29 38 24 8 38 19 16 13 23 19 43 22 24 39 41 40 36 28 31 29
35 36 34 28 18 8 6 6 3 2 4 8 14 15 10 9 14 19 22 19 18 20 19 18 18 30 35 16 29 12 14 14 32 43 23 35 22 28 34 38 36 35 32 28 29
34 37 35 25 11 7 7 8 6 5 7 14 14 10 15 12 20 24 26 24 19 21 23 23 19 31 35 11 13 12 5 15 32 34 42 23 19 34 38 34 33 31 32 31 30
36 35 35 25 9 6 9 9 9 12 12 20 8 14 21 19 23 25 27 24 22 19 23 26 26 26 23 18 17 6 2 24 21 27 33 16 29 31 44 40 35 33 29 32 34
42 38 33 22 6 2 3 8 4 6 26 19 13 17 8 17 23 23 26 25 24 25 24 27 21 23 24 29 28 30 33 36 18 34 12 30 16 31 32 40 40 39 34 32 34
42 39 33 20 3 2 2 8 12 13 15 39 15 16 12 19 21 24 28 27 31 27 30 28 23 32 21 12 27 30 39 7 30 29 32 32 41 46 30 36 39 46 42 39 36
43 39 32 17 2 5 8 18 11 13 16 32 32 28 22 24 25 32 35 40 29 30 32 32 27 26 4 9 17 19 25 28 3 9 17 38 41 30 29 30 40 38 47 42 40
42 38 31 14 5 7 13 9 12 10 11 27 28 28 32 25 30 32 39 36 17 30 33 31 36 7 8 20 20 27 21 14 10 18 10 9 9 33 24 45 33 41 50 42 44
44 38 30 18 11 7 6 11 9 6 11 24 30 21 30 29 13 25 36 40 31 27 28 31 25 28 20 24 23 27 26 18 17 23 28 24 17 35 46 44 41 39 59 50 48
42 38 28 13 12 10 14 12 7 11 12 21 25 22 31 40 17 28 34 41 28 31 29 35 28 26 31 21 27 24 23 21 24 24 23 28 14 9 14 7 17 23 29 57 56
40 37 27 13 4 11 10 12 11 14 16 23 28 25 33 32 31 24 29 35 28 25 31 34 38 20 20 24 28 28 22 18 17 20 22 31 23 16 31 38 42 40 31 33 61
40 31 26 17 17 14 9 13 18 26 30 17 21 27 33 34 33 28 27 31 38 38 26 23 28 40 34 36 29 28 32 23 22 24 21 22 6 13 31 31 33 29 21 9 17
42 21 18 11 6 13 20 21 15 26 18 5 20 24 33 35 28 34 35 35 37 38 35 26 33 21 40 30 33 32 26 37 38 40 25 15 20 12 27 22 35 32 35 18 12
46 29 24 24 8 12 19 33 36 36 26 23 24 18 29 34 36 32 33 28 40 38 40 39 28 34 27 31 36 35 26 24 20 30 31 30 26 29 34 38 26 33 30 20 11
31 18 15 10 9 22 21 31 36 40 32 16 31 37 33 32 32 37 36 35 23 33 34 34 31 27 23 24 31 24 32 33 30 23 24 23 20 20 39 34 30 28 29 23 17
14 13 14 11 19 24 25 40 49 48 38 17 27 36 40 39 34 39 41 38 18 28 35 34 20 31 33 23 26 35 34 36 24 28 27 23 8 21 33 40 38 40 24 20 21
19 36 32 13 16 23 37 43 47 37 25 28 37 31 36 36 40 38 39 36 46 30 25 28 19 30 33 31 33 32 39 37 36 33 35 23 21 23 24 26 40 43 35 24 21
17 9 17 30 27 29 33 34 38 40 31 28 40 37 33 34 34 40 41 39 38 38 19 15 32 28 30 35 30 39 32 35 34 26 31 34 18 24 25 26 35 41 35 30 26
11 12 27 17 27 34 36 29 30 33 39 31 29 30 36 34 34 36 36 39 39 27 21 23 37 37 41 45 44 34 35 44 39 41 39 31 37 36 32 31 34 36 27 27 27
15 32 33 44 44 37 30 33 37 40 38 35 40 31 31 36 34 35 41 36 34 28 29 30 33 36 46 45 44 45 41 32 37 39 42 41 40 27 32 42 42 39 30 28 31
21 27 33 28 33 28 27 35 37 35 38 41 38 34 32 35 29 32 43 49 31 32 36 35 29 32 42 42 43 49 46 42 40 31 35 35 33 29 18 32 47 44 36 34 32
Wind_Direction_850mb
10 9 4 358 348 335 328 329 326 325 298 280 270 245 247 217 182 183 257 237 232 229 159 171 275 263 274 288 346 321 198 87 92 103 96 97 93 112 123 132 94 96 139 135 140
7 5 4 355 348 335 328 326 324 325 296 266 252 223 220 206 210 234 246 260 245 195 159 196 234 251 250 49 38 4 290 104 100 249 104 121 135 135 111 110 106 104 119 137 143
3 0 359 353 344 332 325 322 321 312 275 241 214 204 199 204 252 208 227 235 204 171 204 285 312 351 328 170 184 206 252 107 127 152 111 115 102 134 120 120 126 131 138 144 148
358 356 354 350 342 333 327 321 315 297 260 249 209 197 200 201 331 222 218 203 179 166 276 277 234 188 237 266 208 281 98 270 120 102 108 97 83 67 92 118 132 139 142 147 154
358 356 351 346 342 334 329 320 302 264 248 199 190 197 192 237 252 281 182 181 175 203 253 265 284 127 276 287 234 35 319 12 112 110 103 87 94 108 112 124 134 142 146 155 154
0 355 350 347 345 336 327 322 298 245 214 197 185 192 195 257 264 180 172 175 173 216 245 268 314 321 344 6 333 219 279 231 160 90 157 113 123 115 120 133 138 149 161 159 148
1 354 352 350 346 342 351 359 305 229 190 186 184 189 245 284 192 176 180 192 208 221 262 268 293 308 301 171 150 312 344 316 166 152 98 60 25 112 137 138 147 158 165 140 157
2 358 355 353 353 12 28 26 47 146 171 177 178 185 271 183 183 190 199 210 223 232 261 292 287 290 284 277 175 29 43 357 302 329 99 93 274 147 152 146 157 160 163 154 150
2 357 357 357 10 31 52 56 77 119 149 160 164 208 243 201 193 201 198 210 230 245 255 274 279 278 278 231 54 59 112 113 328 308 252 121 227 258 171 157 161 163 162 166 164
5 0 357 357 14 57 91 77 87 112 147 155 200 243 212 215 191 194 201 210 222 237 252 254 267 253 230 203 155 198 208 164 188 295 337 138 173 200 182 162 160 165 167 174 171
1 0 356 354 355 14 234 329 257 199 206 224 239 248 149 173 173 193 196 205 217 224 230 221 239 244 251 113 156 163 203 197 109 295 348 348 225 174 186 163 163 164 170 180 176
358 357 354 352 323 355 217 253 4 319 273 235 238 234 170 178 184 199 191 200 204 220 222 241 232 264 279 104 166 197 220 270 182 203 133 79 286 263 174 181 180 170 171 179 180
353 354 352 352 289 226 292 305 314 317 267 202 211 220 204 192 211 193 193 205 201 224 224 241 239 229 349 213 271 269 294 173 236 228 216 170 216 203 172 190 187 179 169 182 182
348 349 348 338 352 313 266 280 322 314 275 177 197 220 191 208 231 200 199 202 220 229 232 232 259 215 218 259 241 269 210 281 296 271 302 282 186 210 148 226 185 179 172 187 178
343 343 345 326 278 280 301 315 294 260 278 137 169 179 180 197 182 191 195 218 240 217 233 241 229 256 229 250 249 275 309 340 296 270 280 221 257 176 175 208 175 186 177 181 176
338 335 337 340 297 243 307 299 295 236 251 166 150 192 191 215 185 168 190 223 239 260 238 258 258 235 258 223 253 271 286 267 268 268 270 265 249 111 136 81 54 83 164 178 183
330 323 315 278 140 295 277 271 232 245 132 160 175 196 210 199 223 190 198 206 223 220 246 234 246 236 258 265 238 233 245 249 241 232 242 238 224 144 146 134 118 225 173 188 192
325 315 310 270 249 274 247 235 249 266 196 102 195 193 210 209 211 199 212 219 219 239 258 215 232 219 207 227 242 219 226 242 240 244 246 354 336 113 143 117 115 128 127 155 214
331 327 289 311 238 225 231 224 241 227 318 190 202 215 206 219 225 202 211 228 228 218 248 263 246 236 204 203 233 241 217 249 267 284 286 240 108 55 119 153 146 131 131 129 111
333 319 253 198 230 211 235 241 270 300 323 305 271 220 243 216 220 229 211 223 238 228 213 255 278 282 176 198 215 244 246 224 233 259 276 282 219 221 182 174 166 148 151 154 148
328 289 161 193 209 229 241 251 258 261 266 268 271 276 266 256 226 227 234 240 222 237 227 224 251 270 172 196 228 210 239 256 271 232 241 255 269 132 164 161 156 152 141 157 167
306 275 163 218 239 238 247 252 263 279 289 264 268 283 287 289 270 262 230 240 269 203 238 216 236 240 255 214 206 256 233 230 241 241 273 274 270 60 160 137 158 135 143 157 160
312 286 276 220 260 257 254 257 256 268 284 278 270 253 274 273 283 282 274 264 243 204 230 233 220 249 247 233 205 218 239 244 229 242 261 255 252 125 112 129 124 137 148 149 149
307 300 218 212 250 269 283 289 294 290 241 266 281 287 275 267 269 270 273 276 274 253 154 279 244 230 241 234 236 199 222 245 252 245 228 242 197 140 151 159 143 150 156 158 159
263 299 340 301 305 327 317 309 296 290 288 277 250 265 277 276 273 271 266 267 268 239 179 226 253 254 256 264 271 273 219 209 227 249 257 250 240 165 181 177 161 143 158 157 153
300 334 321 301 300 298 285 275 276 281 287 280 281 275 251 275 265 290 281 269 260 251 208 213 245 252 259 261 258 264 262 259 225 219 243 251 264 279 175 156 151 152 160 168 159
316 309 298 279 287 286 278 283 282 283 278 274 278 290 306 336 329 312 306 305 296 293 298 216 229 240 250 250 262 258 252 256 253 238 225 235 239 259 251 156 153 154 169 175 168